STARLINK-36082

Last updated on Mon Dec 15 2025 00:02:12 GMT+0000 (Coordinated Universal Time)

1 66872U 25281AA 25348.25003472 -.01514894 00000+0 -62956-2 0 9995 2 66872 43.0004 112.8676 0001391 267.5487 321.0901 15.87354213 1541
UTC large
Height (km)
Speed (km/s)
/
Latitude / Longitude
Inclination (degrees)
Orbital Period (minutes)
Azimuth
Elevation
Range (km)
Doppler Factor

Next 0 passes for location: London (51.5072 / 0.1276)

Sorry there are no passes over London.